| time (UTC) | temp F | wind direction | speed knots | gust knots | rain 1hr in | rain 24hr in | rain mn in | humidity % | barometer mb |
| 20260905062720 | 59 | 188 | 0.0 | 0.0 | 0.00 | 0.00 | 0.00 | 95 | 1013.9 |
| 20260905062220 | 59 | 187 | 0.0 | 0.0 | 0.00 | 0.00 | 0.00 | 95 | 1014.1 |
| 20260905061714 | 59 | 183 | 0.0 | 0.0 | 0.00 | 0.00 | 0.00 | 95 | 1014.2 |
| 20260905061209 | 59 | 183 | 0.0 | 0.0 | 0.00 | 0.00 | 0.00 | 95 | 1014.3 |
| 20260905060704 | 59 | 154 | 0.0 | 0.0 | 0.00 | 0.00 | 0.00 | 95 | 1014.0 |
| 20260905060201 | 59 | 196 | 0.0 | 0.0 | 0.00 | 0.00 | 0.00 | 95 | 1014.1 |
| 20260905055659 | 59 | 196 | 0.0 | 0.0 | 0.00 | 0.00 | 0.00 | 95 | 1014.1 |
| 20260905055154 | 59 | 195 | 0.0 | 0.0 | 0.00 | 0.00 | 0.00 | 95 | 1014.2 |
| 20260905054649 | 59 | 195 | 0.0 | 0.0 | 0.00 | 0.00 | 0.00 | 95 | 1014.0 |
| 20260905054145 | 59 | 195 | 0.0 | 0.0 | 0.00 | 0.00 | 0.00 | 95 | 1014.1 |
| 20260905053645 | 59 | 196 | 0.0 | 0.0 | 0.00 | 0.00 | 0.00 | 95 | 1014.3 |
| 20260905053140 | 59 | 194 | 0.0 | 0.0 | 0.00 | 0.00 | 0.00 | 95 | 1014.2 |
| 20260905052639 | 59 | 178 | 0.0 | 0.0 | 0.00 | 0.00 | 0.00 | 95 | 1014.2 |
| 20260905052135 | 59 | 167 | 0.0 | 0.0 | 0.00 | 0.00 | 0.00 | 95 | 1014.2 |
| 20260905051629 | 59 | 167 | 0.0 | 0.0 | 0.00 | 0.00 | 0.00 | 95 | 1014.6 |
| 20260905051126 | 59 | 166 | 0.0 | 0.0 | 0.00 | 0.00 | 0.00 | 95 | 1014.2 |
| 20260905050622 | 59 | 194 | 0.0 | 0.0 | 0.00 | 0.00 | 0.00 | 95 | 1014.3 |
| 20260905050119 | 59 | 193 | 0.0 | 0.0 | 0.00 | 0.00 | 0.00 | 95 | 1014.4 |
| 20260905045618 | 60 | 186 | 0.0 | 0.0 | 0.00 | 0.00 | 0.00 | 95 | 1014.4 |
| 20260905045113 | 60 | 188 | 0.0 | 0.0 | 0.00 | 0.00 | 0.00 | 95 | 1014.4 |
| 20260905044608 | 60 | 197 | 0.0 | 0.0 | 0.00 | 0.00 | 0.00 | 95 | 1014.4 |
| 20260905044103 | 60 | 157 | 0.0 | 0.0 | 0.00 | 0.00 | 0.00 | 95 | 1014.5 |
| 20260905043601 | 60 | 181 | 0.0 | 0.0 | 0.00 | 0.00 | 0.00 | 95 | 1014.3 |
| 20260905043057 | 60 | 181 | 0.0 | 0.0 | 0.00 | 0.00 | 0.00 | 95 | 1014.4 |
| 20260905042555 | 60 | 181 | 0.0 | 0.0 | 0.00 | 0.00 | 0.00 | 95 | 1014.5 |
| 20260905042051 | 60 | 181 | 0.0 | 0.0 | 0.00 | 0.00 | 0.00 | 95 | 1014.6 |
| 20260905041546 | 60 | 184 | 0.0 | 0.0 | 0.00 | 0.00 | 0.00 | 95 | 1014.6 |
| 20260905041042 | 60 | 183 | 0.0 | 0.0 | 0.00 | 0.00 | 0.00 | 95 | 1014.5 |
| 20260905040541 | 61 | 187 | 0.0 | 0.0 | 0.00 | 0.00 | 0.00 | 95 | 1014.6 |
| 20260905040040 | 60 | 178 | 0.0 | 0.0 | 0.00 | 0.36 | 0.36 | 94 | 1014.6 |
| 20260905035535 | 61 | 174 | 0.0 | 0.0 | 0.00 | 0.36 | 0.36 | 94 | 1014.6 |
| 20260905035032 | 61 | 166 | 0.0 | 0.0 | 0.00 | 0.36 | 0.36 | 94 | 1014.6 |
| 20260905034527 | 61 | 176 | 0.0 | 0.0 | 0.00 | 0.36 | 0.36 | 94 | 1014.5 |
| 20260905034027 | 61 | 168 | 0.0 | 0.0 | 0.00 | 0.36 | 0.36 | 94 | 1014.6 |
| 20260905033521 | 61 | 167 | 0.0 | 0.0 | 0.00 | 0.36 | 0.36 | 93 | 1014.3 |
| 20260905033017 | 61 | 167 | 0.0 | 0.0 | 0.00 | 0.36 | 0.36 | 93 | 1014.6 |
| 20260905032512 | 61 | 167 | 0.0 | 0.0 | 0.00 | 0.36 | 0.36 | 93 | 1014.6 |
| 20260905032007 | 62 | 167 | 0.0 | 0.0 | 0.00 | 0.36 | 0.36 | 93 | 1014.5 |
| 20260905031503 | 62 | 167 | 0.0 | 0.0 | 0.00 | 0.36 | 0.36 | 93 | 1014.7 |
| 20260905030957 | 62 | 167 | 0.0 | 0.0 | 0.00 | 0.36 | 0.36 | 93 | 1014.4 |
| 20260905030453 | 62 | 168 | 0.0 | 0.0 | 0.00 | 0.36 | 0.36 | 92 | 1014.6 |
| 20260905025951 | 62 | 167 | 0.0 | 0.0 | 0.00 | 0.36 | 0.36 | 92 | 1014.4 |
| 20260905025448 | 62 | 168 | 0.0 | 0.0 | 0.00 | 0.36 | 0.36 | 92 | 1014.4 |
| 20260905024944 | 62 | 151 | 0.0 | 0.0 | 0.00 | 0.36 | 0.36 | 92 | 1014.5 |
| 20260905024444 | 62 | 150 | 0.0 | 0.0 | 0.00 | 0.36 | 0.36 | 92 | 1014.6 |
| 20260905023940 | 62 | 135 | 0.9 | 0.9 | 0.00 | 0.36 | 0.36 | 92 | 1014.5 |
| 20260905023434 | 62 | 129 | 0.9 | 1.7 | 0.00 | 0.36 | 0.36 | 91 | 1014.5 |
| 20260905022933 | 63 | 143 | 0.0 | 0.0 | 0.00 | 0.36 | 0.36 | 91 | 1014.2 |
| 20260905022429 | 63 | 154 | 0.0 | 0.9 | 0.00 | 0.36 | 0.36 | 90 | 1014.4 |
| 20260905021924 | 63 | 155 | 0.0 | 0.0 | 0.00 | 0.36 | 0.36 | 90 | 1014.6 |
| 20260905021424 | 64 | 158 | 0.0 | 0.0 | 0.00 | 0.36 | 0.36 | 90 | 1014.5 |
| 20260905020919 | 64 | 164 | 0.0 | 0.0 | 0.00 | 0.36 | 0.36 | 89 | 1014.4 |
| 20260905020418 | 64 | 163 | 0.0 | 0.0 | 0.00 | 0.36 | 0.36 | 89 | 1014.5 |
| 20260905015913 | 64 | 93 | 0.9 | 0.9 | 0.00 | 0.36 | 0.36 | 89 | 1014.2 |
| 20260905015411 | 65 | 142 | 0.0 | 0.0 | 0.00 | 0.36 | 0.36 | 89 | 1014.8 |
| 20260905014910 | 65 | 105 | 0.0 | 0.0 | 0.00 | 0.36 | 0.36 | 89 | 1014.8 |
| 20260905014406 | 66 | 152 | 0.0 | 0.0 | 0.00 | 0.36 | 0.36 | 89 | 1014.8 |
| 20260905013901 | 66 | 152 | 0.0 | 0.0 | 0.00 | 0.36 | 0.36 | 88 | 1014.8 |
| 20260905013357 | 66 | 153 | 0.0 | 0.0 | 0.00 | 0.36 | 0.36 | 88 | 1014.8 |
| 20260905012852 | 66 | 156 | 0.0 | 0.0 | 0.00 | 0.36 | 0.36 | 88 | 1014.8 |
| 20260905012348 | 66 | 137 | 0.0 | 0.0 | 0.00 | 0.36 | 0.36 | 88 | 1014.8 |
| 20260905011844 | 66 | 150 | 0.0 | 0.0 | 0.00 | 0.36 | 0.36 | 88 | 1014.8 |
| 20260905011339 | 66 | 150 | 0.0 | 0.0 | 0.00 | 0.36 | 0.36 | 88 | 1014.4 |
| 20260905010835 | 66 | 149 | 0.0 | 0.0 | 0.00 | 0.36 | 0.36 | 87 | 1014.5 |
| 20260905010330 | 66 | 150 | 0.0 | 0.0 | 0.00 | 0.36 | 0.36 | 87 | 1014.4 |
| 20260905005826 | 66 | 150 | 0.0 | 0.0 | 0.00 | 0.36 | 0.36 | 87 | 1014.3 |
| 20260905005322 | 66 | 150 | 0.0 | 0.0 | 0.00 | 0.36 | 0.36 | 87 | 1014.5 |
| 20260905004816 | 66 | 150 | 0.0 | 0.0 | 0.00 | 0.36 | 0.36 | 87 | 1014.5 |
| 20260905004311 | 66 | 150 | 0.0 | 0.0 | 0.00 | 0.36 | 0.36 | 87 | 1014.6 |
| 20260905003806 | 66 | 111 | 0.0 | 0.0 | 0.00 | 0.36 | 0.36 | 87 | 1014.4 |
| 20260905003303 | 66 | 147 | 0.0 | 0.0 | 0.00 | 0.36 | 0.36 | 87 | 1014.5 |
| 20260905002758 | 67 | 150 | 0.0 | 0.0 | 0.00 | 0.36 | 0.36 | 86 | 1014.3 |
| 20260905002257 | 67 | 156 | 0.0 | 0.0 | 0.00 | 0.36 | 0.36 | 86 | 1014.4 |
| 20260905001752 | 67 | 157 | 0.0 | 0.0 | 0.00 | 0.36 | 0.36 | 85 | 1014.2 |
| 20260905001252 | 67 | 157 | 0.0 | 0.0 | 0.00 | 0.36 | 0.36 | 84 | 1014.4 |
| 20260905000747 | 67 | 144 | 0.0 | 0.0 | 0.00 | 0.36 | 0.36 | 84 | 1014.2 |
| 20260905000243 | 67 | 159 | 0.0 | 0.0 | 0.00 | 0.36 | 0.36 | 83 | 1014.2 |
| 20260904235738 | 67 | 158 | 0.0 | 0.0 | 0.00 | 0.36 | 0.36 | 84 | 1014.1 |
| 20260904235232 | 67 | 182 | 0.0 | 0.0 | 0.00 | 0.36 | 0.36 | 84 | 1014.2 |
| 20260904234727 | 67 | 147 | 0.0 | 0.0 | 0.00 | 0.36 | 0.36 | 82 | 1014.1 |
| 20260904234222 | 67 | 109 | 0.0 | 0.0 | 0.00 | 0.36 | 0.36 | 82 | 1013.9 |
| 20260904233718 | 68 | 148 | 0.0 | 0.0 | 0.00 | 0.36 | 0.36 | 82 | 1014.2 |
| 20260904233214 | 68 | 148 | 0.0 | 0.0 | 0.00 | 0.36 | 0.36 | 82 | 1014.0 |
| 20260904232711 | 69 | 156 | 0.0 | 0.0 | 0.00 | 0.36 | 0.36 | 82 | 1014.0 |
| 20260904232207 | 69 | 172 | 0.0 | 0.0 | 0.00 | 0.36 | 0.36 | 81 | 1014.2 |
| 20260904231702 | 69 | 150 | 0.0 | 0.0 | 0.00 | 0.36 | 0.36 | 81 | 1014.1 |
| 20260904231157 | 69 | 107 | 0.9 | 1.7 | 0.00 | 0.36 | 0.36 | 80 | 1014.1 |
| 20260904230657 | 69 | 106 | 0.9 | 0.9 | 0.00 | 0.36 | 0.36 | 81 | 1013.9 |
| 20260904230152 | 69 | 143 | 0.9 | 0.9 | 0.00 | 0.36 | 0.36 | 80 | 1014.1 |
| 20260904225650 | 70 | 100 | 0.9 | 1.7 | 0.00 | 0.36 | 0.36 | 80 | 1013.9 |
| 20260904225145 | 70 | 110 | 0.9 | 0.9 | 0.00 | 0.36 | 0.36 | 78 | 1013.8 |
| 20260904224639 | 71 | 125 | 0.9 | 0.9 | 0.00 | 0.36 | 0.36 | 77 | 1013.6 |
| 20260904224139 | 71 | 116 | 0.9 | 0.9 | 0.00 | 0.36 | 0.36 | 76 | 1013.7 |
| 20260904223633 | 72 | 80 | 0.9 | 1.7 | 0.00 | 0.36 | 0.36 | 75 | 1013.8 |
| 20260904223129 | 72 | 101 | 0.9 | 1.7 | 0.00 | 0.36 | 0.36 | 73 | 1014.0 |
| 20260904222625 | 72 | 152 | 0.9 | 0.9 | 0.00 | 0.36 | 0.36 | 74 | 1013.9 |
| 20260904222120 | 72 | 144 | 0.9 | 0.9 | 0.00 | 0.36 | 0.36 | 73 | 1013.7 |
| 20260904221620 | 73 | 141 | 0.0 | 0.0 | 0.00 | 0.36 | 0.36 | 72 | 1013.8 |
| 20260904221119 | 73 | 147 | 0.0 | 0.0 | 0.00 | 0.36 | 0.36 | 72 | 1013.7 |
| 20260904220614 | 73 | 171 | 0.0 | 0.0 | 0.00 | 0.36 | 0.36 | 71 | 1013.7 |
| 20260904220110 | 74 | 81 | 1.7 | 1.7 | 0.00 | 0.36 | 0.36 | 70 | 1013.5 |
| 20260904215609 | 75 | 93 | 0.9 | 1.7 | 0.00 | 0.36 | 0.36 | 69 | 1013.6 |
| 20260904215106 | 75 | 125 | 0.9 | 0.9 | 0.00 | 0.36 | 0.36 | 68 | 1013.7 |
| 20260904214600 | 77 | 261 | 1.7 | 2.6 | 0.00 | 0.36 | 0.36 | 65 | 1013.5 |
| 20260904214056 | 77 | 237 | 1.7 | 1.7 | 0.00 | 0.36 | 0.36 | 65 | 1013.5 |
| 20260904213554 | 77 | 276 | 3.5 | 4.3 | 0.00 | 0.36 | 0.36 | 62 | 1013.5 |
| 20260904213051 | 77 | 291 | 3.5 | 6.1 | 0.00 | 0.36 | 0.36 | 63 | 1013.4 |
| 20260904212550 | 77 | 197 | 0.9 | 0.9 | 0.00 | 0.36 | 0.36 | 64 | 1013.7 |
| 20260904212045 | 77 | 275 | 3.5 | 5.2 | 0.00 | 0.36 | 0.36 | 63 | 1013.5 |
| 20260904211545 | 76 | 269 | 6.1 | 6.1 | 0.00 | 0.36 | 0.36 | 63 | 1013.6 |
| 20260904211040 | 78 | 228 | 3.5 | 4.3 | 0.00 | 0.36 | 0.36 | 62 | 1013.5 |
| 20260904210539 | 78 | 184 | 0.9 | 0.9 | 0.00 | 0.36 | 0.36 | 64 | 1013.4 |
| 20260904210037 | 78 | 192 | 1.7 | 2.6 | 0.00 | 0.36 | 0.36 | 61 | 1013.7 |
| 20260904205536 | 78 | 248 | 3.5 | 4.3 | 0.00 | 0.36 | 0.36 | 62 | 1013.4 |
| 20260904205033 | 78 | 250 | 3.5 | 4.3 | 0.00 | 0.36 | 0.36 | 61 | 1013.6 |
| 20260904204529 | 78 | 210 | 1.7 | 2.6 | 0.00 | 0.36 | 0.36 | 63 | 1013.8 |
| 20260904204025 | 78 | 67 | 0.9 | 1.7 | 0.00 | 0.36 | 0.36 | 63 | 1013.7 |
| 20260904203520 | 78 | 208 | 1.7 | 1.7 | 0.00 | 0.36 | 0.36 | 62 | 1013.8 |
| 20260904203017 | 78 | 212 | 0.9 | 1.7 | 0.00 | 0.36 | 0.36 | 62 | 1013.8 |
| 20260904202512 | 78 | 247 | 2.6 | 4.3 | 0.00 | 0.36 | 0.36 | 61 | 1013.9 |
| 20260904202009 | 79 | 309 | 4.3 | 6.1 | 0.00 | 0.36 | 0.36 | 59 | 1014.0 |
| 20260904201503 | 77 | 346 | 3.5 | 5.2 | 0.00 | 0.36 | 0.36 | 60 | 1014.1 |
| 20260904200959 | 77 | 322 | 3.5 | 6.1 | 0.00 | 0.36 | 0.36 | 61 | 1014.1 |
| 20260904200457 | 78 | 308 | 2.6 | 4.3 | 0.00 | 0.36 | 0.36 | 61 | 1014.1 |
| 20260904195953 | 77 | 204 | 0.9 | 0.9 | 0.00 | 0.36 | 0.36 | 62 | 1014.0 |
| 20260904195451 | 77 | 262 | 1.7 | 1.7 | 0.00 | 0.36 | 0.36 | 62 | 1014.3 |
| 20260904194950 | 78 | 301 | 3.5 | 5.2 | 0.00 | 0.36 | 0.36 | 61 | 1014.4 |
| 20260904194445 | 78 | 264 | 4.3 | 5.2 | 0.00 | 0.36 | 0.36 | 62 | 1014.2 |
| 20260904193940 | 79 | 196 | 0.9 | 1.7 | 0.00 | 0.36 | 0.36 | 60 | 1014.0 |
| 20260904193436 | 78 | 226 | 1.7 | 1.7 | 0.00 | 0.36 | 0.36 | 62 | 1014.3 |
| 20260904192931 | 77 | 290 | 4.3 | 7.0 | 0.00 | 0.36 | 0.36 | 63 | 1014.3 |
| 20260904192426 | 78 | 340 | 3.5 | 5.2 | 0.00 | 0.36 | 0.36 | 63 | 1014.3 |
| 20260904191922 | 78 | 325 | 6.1 | 7.0 | 0.00 | 0.36 | 0.36 | 62 | 1014.4 |
| 20260904191419 | 78 | 206 | 0.9 | 0.9 | 0.00 | 0.36 | 0.36 | 65 | 1014.4 |
| 20260904190915 | 77 | 151 | 0.0 | 0.9 | 0.00 | 0.36 | 0.36 | 66 | 1014.4 |
| 20260904190410 | 77 | 283 | 5.2 | 7.0 | 0.00 | 0.36 | 0.36 | 63 | 1014.5 |
| 20260904185907 | 76 | 306 | 2.6 | 2.6 | 0.00 | 0.36 | 0.36 | 65 | 1014.3 |
| 20260904185402 | 77 | 53 | 3.5 | 5.2 | 0.00 | 0.36 | 0.36 | 62 | 1014.6 |
| 20260904184902 | 79 | 257 | 3.5 | 5.2 | 0.00 | 0.36 | 0.36 | 62 | 1014.2 |
| 20260904184356 | 78 | 202 | 0.9 | 0.9 | 0.00 | 0.36 | 0.36 | 63 | 1014.5 |
| 20260904183851 | 77 | 149 | 1.7 | 2.6 | 0.00 | 0.36 | 0.36 | 63 | 1014.4 |
| 20260904183341 | 78 | 238 | 2.6 | 4.3 | 0.00 | 0.36 | 0.36 | 61 | 1015.0 |
| 20260904182836 | 78 | 314 | 4.3 | 5.2 | 0.00 | 0.36 | 0.36 | 61 | 1014.7 |
| 20260904182331 | 78 | 184 | 0.9 | 0.9 | 0.00 | 0.36 | 0.36 | 63 | 1014.6 |
| 20260904181827 | 78 | 294 | 4.3 | 7.0 | 0.00 | 0.36 | 0.36 | 62 | 1014.8 |
| 20260904181327 | 78 | 233 | 1.7 | 1.7 | 0.00 | 0.36 | 0.36 | 63 | 1014.6 |
| 20260904180822 | 77 | 287 | 7.0 | 7.8 | 0.00 | 0.36 | 0.36 | 61 | 1014.9 |
| 20260904180317 | 77 | 267 | 4.3 | 5.2 | 0.00 | 0.36 | 0.36 | 64 | 1015.1 |
| 20260904175816 | 76 | 215 | 1.7 | 1.7 | 0.00 | 0.36 | 0.36 | 65 | 1015.0 |
| 20260904175314 | 77 | 296 | 4.3 | 5.2 | 0.00 | 0.36 | 0.36 | 64 | 1014.9 |
| 20260904174809 | 76 | 313 | 6.1 | 7.8 | 0.00 | 0.36 | 0.36 | 65 | 1015.2 |
| 20260904174305 | 75 | 192 | 0.0 | 0.9 | 0.00 | 0.36 | 0.36 | 68 | 1015.1 |
| 20260904173801 | 76 | 54 | 2.6 | 4.3 | 0.00 | 0.36 | 0.36 | 66 | 1015.3 |
| 20260904173256 | 77 | 306 | 6.1 | 8.7 | 0.00 | 0.36 | 0.36 | 64 | 1015.2 |
| 20260904172752 | 76 | 174 | 0.9 | 1.7 | 0.00 | 0.36 | 0.36 | 69 | 1015.2 |
| 20260904172251 | 77 | 318 | 4.3 | 6.1 | 0.00 | 0.36 | 0.36 | 67 | 1015.4 |
| 20260904171746 | 76 | 273 | 3.5 | 5.2 | 0.00 | 0.36 | 0.36 | 66 | 1015.4 |
| 20260904171241 | 75 | 240 | 5.2 | 6.1 | 0.00 | 0.36 | 0.36 | 68 | 1015.3 |
| 20260904170738 | 75 | 273 | 5.2 | 6.1 | 0.00 | 0.36 | 0.36 | 67 | 1015.3 |
| 20260904170233 | 75 | 275 | 5.2 | 7.8 | 0.00 | 0.36 | 0.36 | 67 | 1015.5 |
| 20260904165733 | 74 | 287 | 2.6 | 2.6 | 0.00 | 0.36 | 0.36 | 69 | 1015.5 |
| 20260904165227 | 75 | 267 | 5.2 | 7.0 | 0.00 | 0.36 | 0.36 | 67 | 1015.5 |
| 20260904164727 | 76 | 294 | 5.2 | 6.1 | 0.00 | 0.36 | 0.36 | 66 | 1015.4 |
| 20260904164222 | 76 | 279 | 2.6 | 5.2 | 0.00 | 0.36 | 0.36 | 65 | 1015.3 |
| 20260904163718 | 76 | 148 | 0.9 | 0.9 | 0.00 | 0.36 | 0.36 | 67 | 1015.2 |
| 20260904163213 | 76 | 250 | 2.6 | 4.3 | 0.00 | 0.36 | 0.36 | 66 | 1015.1 |
| 20260904162712 | 75 | 250 | 0.9 | 2.6 | 0.00 | 0.36 | 0.36 | 69 | 1015.3 |
| 20260904162207 | 76 | 291 | 2.6 | 5.2 | 0.00 | 0.36 | 0.36 | 69 | 1015.0 |
| 20260904161703 | 76 | 173 | 1.7 | 1.7 | 0.00 | 0.36 | 0.36 | 70 | 1015.3 |
| 20260904161158 | 76 | 191 | 2.6 | 2.6 | 0.00 | 0.36 | 0.36 | 69 | 1015.3 |
| 20260904160654 | 76 | 191 | 0.9 | 1.7 | 0.00 | 0.36 | 0.36 | 69 | 1015.2 |
| 20260904160149 | 76 | 194 | 0.9 | 1.7 | 0.00 | 0.36 | 0.36 | 71 | 1015.3 |
| 20260904155644 | 75 | 336 | 3.5 | 4.3 | 0.00 | 0.36 | 0.36 | 71 | 1015.3 |
| 20260904155143 | 75 | 232 | 2.6 | 4.3 | 0.00 | 0.36 | 0.36 | 71 | 1015.3 |
| 20260904154642 | 74 | 299 | 2.6 | 2.6 | 0.00 | 0.36 | 0.36 | 72 | 1015.4 |
| 20260904154136 | 74 | 319 | 3.5 | 4.3 | 0.00 | 0.36 | 0.36 | 73 | 1015.1 |
| 20260904153631 | 74 | 234 | 2.6 | 4.3 | 0.00 | 0.36 | 0.36 | 74 | 1015.4 |
| 20260904153127 | 75 | 237 | 1.7 | 2.6 | 0.00 | 0.36 | 0.36 | 73 | 1015.2 |
| 20260904152623 | 74 | 112 | 1.7 | 1.7 | 0.00 | 0.36 | 0.36 | 74 | 1015.6 |
| 20260904152119 | 75 | 309 | 1.7 | 2.6 | 0.00 | 0.36 | 0.36 | 74 | 1015.8 |
| 20260904151613 | 74 | 34 | 1.7 | 2.6 | 0.00 | 0.36 | 0.36 | 75 | 1015.7 |
| 20260904151112 | 74 | 246 | 2.6 | 2.6 | 0.00 | 0.36 | 0.36 | 75 | 1015.8 |
| 20260904150608 | 74 | 76 | 0.9 | 1.7 | 0.00 | 0.36 | 0.36 | 77 | 1015.6 |
| 20260904145601 | 72 | 270 | 1.7 | 1.7 | 0.00 | 0.36 | 0.36 | 77 | 1015.5 |
| 20260904145056 | 72 | 329 | 4.3 | 6.1 | 0.00 | 0.36 | 0.36 | 79 | 1015.7 |
| 20260904144552 | 72 | 198 | 1.7 | 2.6 | 0.00 | 0.36 | 0.36 | 79 | 1015.7 |
| 20260904144048 | 71 | 195 | 0.9 | 1.7 | 0.00 | 0.36 | 0.36 | 80 | 1015.7 |
| 20260904143544 | 71 | 284 | 4.3 | 5.2 | 0.00 | 0.36 | 0.36 | 79 | 1015.8 |
| 20260904143040 | 73 | 206 | 0.9 | 1.7 | 0.00 | 0.36 | 0.36 | 79 | 1015.7 |
| 20260904142536 | 73 | 230 | 2.6 | 2.6 | 0.00 | 0.36 | 0.36 | 78 | 1015.7 |
| 20260904142032 | 72 | 155 | 0.0 | 0.9 | 0.00 | 0.36 | 0.36 | 80 | 1015.7 |
| 20260904141526 | 72 | 148 | 0.9 | 1.7 | 0.00 | 0.36 | 0.36 | 80 | 1015.7 |
| 20260904141022 | 71 | 335 | 4.3 | 5.2 | 0.00 | 0.36 | 0.36 | 80 | 1015.6 |
| 20260904140516 | 71 | 107 | 0.9 | 1.7 | 0.00 | 0.36 | 0.36 | 83 | 1016.0 |
| 20260904140016 | 71 | 328 | 2.6 | 2.6 | 0.00 | 0.36 | 0.36 | 83 | 1015.8 |
| 20260904135516 | 70 | 147 | 0.0 | 0.0 | 0.00 | 0.36 | 0.36 | 85 | 1015.8 |
| 20260904135012 | 72 | 22 | 6.1 | 7.8 | 0.00 | 0.36 | 0.36 | 83 | 1015.5 |
| 20260904134507 | 70 | 187 | 0.9 | 1.7 | 0.00 | 0.36 | 0.36 | 85 | 1015.7 |
| 20260904134001 | 69 | 273 | 1.7 | 4.3 | 0.00 | 0.36 | 0.36 | 86 | 1015.8 |
| 20260904133455 | 70 | 198 | 1.7 | 1.7 | 0.00 | 0.36 | 0.36 | 86 | 1015.8 |
| 20260904132951 | 69 | 180 | 0.9 | 0.9 | 0.00 | 0.36 | 0.36 | 89 | 1015.8 |
| 20260904132446 | 67 | 168 | 0.9 | 1.7 | 0.00 | 0.36 | 0.36 | 93 | 1015.4 |
| 20260904131946 | 67 | 321 | 2.6 | 4.3 | 0.00 | 0.36 | 0.36 | 95 | 1015.6 |
| 20260904131441 | 66 | 195 | 0.9 | 0.9 | 0.00 | 0.36 | 0.36 | 95 | 1015.5 |
| 20260904130937 | 66 | 141 | 0.9 | 0.9 | 0.00 | 0.36 | 0.36 | 95 | 1015.7 |
| 20260904130436 | 65 | 206 | 0.0 | 0.0 | 0.00 | 0.36 | 0.36 | 95 | 1015.6 |
| 20260904125931 | 66 | 185 | 0.9 | 0.9 | 0.00 | 0.36 | 0.36 | 95 | 1015.6 |
| 20260904125427 | 66 | 320 | 2.6 | 2.6 | 0.00 | 0.36 | 0.36 | 95 | 1015.5 |
| 20260904124926 | 66 | 258 | 1.7 | 1.7 | 0.00 | 0.36 | 0.36 | 95 | 1015.7 |
| 20260904124422 | 66 | 189 | 0.9 | 0.9 | 0.00 | 0.36 | 0.36 | 95 | 1015.6 |
| 20260904123913 | 65 | 188 | 1.7 | 2.6 | 0.00 | 0.36 | 0.36 | 95 | 1015.6 |
| 20260904123413 | 65 | 296 | 3.5 | 4.3 | 0.00 | 0.36 | 0.36 | 95 | 1015.7 |
| 20260904122908 | 66 | 169 | 0.0 | 0.0 | 0.00 | 0.36 | 0.36 | 95 | 1015.7 |
| 20260904122407 | 65 | 176 | 0.0 | 0.0 | 0.00 | 0.36 | 0.36 | 95 | 1015.5 |
| 20260904121902 | 65 | 54 | 0.9 | 1.7 | 0.00 | 0.36 | 0.36 | 95 | 1015.5 |
| 20260904121359 | 65 | 262 | 0.9 | 1.7 | 0.00 | 0.36 | 0.36 | 95 | 1015.4 |
| 20260904120855 | 65 | 169 | 0.0 | 0.0 | 0.00 | 0.36 | 0.36 | 95 | 1015.5 |
| 20260904120351 | 65 | 176 | 0.9 | 1.7 | 0.00 | 0.36 | 0.36 | 95 | 1015.6 |
| 20260904115846 | 65 | 143 | 0.0 | 0.0 | 0.00 | 0.36 | 0.36 | 95 | 1015.3 |
| 20260904115341 | 64 | 141 | 0.0 | 0.0 | 0.00 | 0.36 | 0.36 | 95 | 1015.5 |
| 20260904114835 | 64 | 265 | 0.9 | 1.7 | 0.00 | 0.36 | 0.36 | 95 | 1015.4 |
| 20260904114330 | 65 | 187 | 0.0 | 0.0 | 0.00 | 0.36 | 0.36 | 95 | 1015.5 |
| 20260904113825 | 65 | 153 | 0.0 | 0.0 | 0.00 | 0.36 | 0.36 | 95 | 1015.4 |
| 20260904113324 | 64 | 164 | 0.0 | 0.0 | 0.00 | 0.36 | 0.36 | 95 | 1015.3 |
| 20260904112819 | 64 | 181 | 0.0 | 0.0 | 0.00 | 0.36 | 0.36 | 95 | 1015.4 |
| 20260904112315 | 64 | 184 | 0.0 | 0.0 | 0.00 | 0.36 | 0.36 | 95 | 1015.3 |
| 20260904111810 | 64 | 173 | 0.0 | 0.0 | 0.00 | 0.36 | 0.36 | 95 | 1015.1 |
| 20260904111306 | 64 | 181 | 0.0 | 0.0 | 0.00 | 0.36 | 0.36 | 95 | 1015.5 |
| 20260904110802 | 64 | 183 | 0.0 | 0.0 | 0.00 | 0.36 | 0.36 | 95 | 1015.2 |
| 20260904110300 | 64 | 187 | 0.0 | 0.0 | 0.00 | 0.36 | 0.36 | 95 | 1015.3 |
| 20260904105756 | 64 | 140 | 0.0 | 0.0 | 0.00 | 0.36 | 0.36 | 95 | 1015.1 |
| 20260904105250 | 64 | 163 | 0.0 | 0.0 | 0.00 | 0.36 | 0.36 | 95 | 1015.1 |
| 20260904104746 | 65 | 156 | 0.0 | 0.0 | 0.00 | 0.36 | 0.36 | 95 | 1015.1 |
| 20260904104241 | 65 | 180 | 0.0 | 0.0 | 0.00 | 0.36 | 0.36 | 95 | 1015.1 |
| 20260904103738 | 65 | 179 | 0.0 | 0.0 | 0.00 | 0.36 | 0.36 | 95 | 1015.2 |
| 20260904103232 | 65 | 173 | 0.0 | 0.0 | 0.00 | 0.36 | 0.36 | 95 | 1014.9 |
| 20260904102728 | 65 | 278 | 2.6 | 2.6 | 0.00 | 0.36 | 0.36 | 95 | 1015.0 |
| 20260904102223 | 65 | 169 | 0.0 | 0.0 | 0.00 | 0.36 | 0.36 | 95 | 1015.0 |
| 20260904101720 | 66 | 157 | 0.0 | 0.0 | 0.00 | 0.36 | 0.36 | 95 | 1014.7 |
| 20260904101215 | 65 | 178 | 0.0 | 0.0 | 0.00 | 0.36 | 0.36 | 95 | 1014.7 |
| 20260904100711 | 65 | 177 | 0.0 | 0.0 | 0.00 | 0.36 | 0.36 | 95 | 1014.7 |
| 20260904100207 | 65 | 178 | 0.0 | 0.0 | 0.00 | 0.36 | 0.36 | 95 | 1014.7 |
| 20260904095706 | 65 | 178 | 0.0 | 0.0 | 0.00 | 0.36 | 0.36 | 95 | 1014.7 |
| 20260904095200 | 65 | 178 | 0.0 | 0.0 | 0.00 | 0.36 | 0.36 | 95 | 1014.7 |
| 20260904094650 | 65 | 179 | 0.0 | 0.0 | 0.00 | 0.36 | 0.36 | 95 | 1014.7 |
| 20260904094145 | 65 | 180 | 0.0 | 0.0 | 0.00 | 0.36 | 0.36 | 95 | 1014.6 |
| 20260904093642 | 65 | 180 | 0.0 | 0.0 | 0.00 | 0.36 | 0.36 | 95 | 1014.5 |
| 20260904093141 | 65 | 180 | 0.0 | 0.0 | 0.00 | 0.36 | 0.36 | 95 | 1014.6 |
| 20260904092638 | 65 | 180 | 0.0 | 0.0 | 0.00 | 0.36 | 0.36 | 95 | 1014.6 |
| 20260904092134 | 65 | 180 | 0.0 | 0.0 | 0.00 | 0.36 | 0.36 | 95 | 1014.7 |
| 20260904091630 | 65 | 184 | 0.0 | 0.0 | 0.00 | 0.36 | 0.36 | 95 | 1014.6 |
| 20260904091129 | 64 | 180 | 0.0 | 0.0 | 0.00 | 0.36 | 0.36 | 95 | 1014.6 |
| 20260904090625 | 64 | 179 | 0.0 | 0.0 | 0.00 | 0.36 | 0.36 | 95 | 1014.7 |
| 20260904090120 | 64 | 179 | 0.0 | 0.0 | 0.00 | 0.36 | 0.36 | 95 | 1014.5 |
| 20260904085615 | 64 | 179 | 0.0 | 0.0 | 0.00 | 0.36 | 0.36 | 95 | 1014.7 |
| 20260904085114 | 64 | 179 | 0.0 | 0.0 | 0.00 | 0.36 | 0.36 | 95 | 1014.6 |
| 20260904084610 | 65 | 179 | 0.0 | 0.0 | 0.00 | 0.36 | 0.36 | 95 | 1014.6 |
| 20260904084107 | 64 | 179 | 0.0 | 0.0 | 0.00 | 0.36 | 0.36 | 95 | 1014.4 |
| 20260904083603 | 64 | 179 | 0.0 | 0.0 | 0.00 | 0.36 | 0.36 | 95 | 1014.6 |
| 20260904083058 | 64 | 179 | 0.0 | 0.0 | 0.00 | 0.36 | 0.36 | 95 | 1014.4 |
| 20260904082553 | 64 | 177 | 0.0 | 0.0 | 0.00 | 0.36 | 0.36 | 95 | 1014.3 |
| 20260904082048 | 64 | 135 | 0.0 | 0.0 | 0.00 | 0.36 | 0.36 | 95 | 1014.3 |
| 20260904081543 | 65 | 148 | 0.0 | 0.0 | 0.00 | 0.36 | 0.36 | 95 | 1013.8 |
| 20260904081038 | 65 | 162 | 0.0 | 0.0 | 0.00 | 0.36 | 0.36 | 95 | 1013.9 |
| 20260904080534 | 65 | 167 | 0.0 | 0.0 | 0.00 | 0.36 | 0.36 | 95 | 1013.8 |
| 20260904080030 | 65 | 149 | 0.0 | 0.0 | 0.00 | 0.36 | 0.36 | 95 | 1014.0 |
| 20260904075526 | 65 | 153 | 0.0 | 0.0 | 0.00 | 0.36 | 0.36 | 95 | 1013.8 |
| 20260904075021 | 65 | 153 | 0.0 | 0.0 | 0.00 | 0.36 | 0.36 | 95 | 1013.6 |
| 20260904074515 | 64 | 153 | 0.0 | 0.0 | 0.00 | 0.36 | 0.36 | 95 | 1013.8 |
| 20260904074015 | 64 | 117 | 0.0 | 0.0 | 0.00 | 0.36 | 0.36 | 95 | 1013.8 |
| 20260904073510 | 65 | 161 | 0.0 | 0.0 | 0.00 | 0.36 | 0.36 | 95 | 1013.7 |
| 20260904073006 | 65 | 161 | 0.0 | 0.0 | 0.00 | 0.36 | 0.36 | 95 | 1013.9 |
| 20260904072502 | 65 | 153 | 0.0 | 0.0 | 0.00 | 0.36 | 0.36 | 95 | 1013.5 |
| 20260904071956 | 65 | 160 | 0.0 | 0.0 | 0.00 | 0.36 | 0.36 | 95 | 1013.7 |
| 20260904071451 | 65 | 174 | 0.0 | 0.0 | 0.00 | 0.36 | 0.36 | 95 | 1013.7 |
| 20260904070946 | 66 | 163 | 0.0 | 0.0 | 0.00 | 0.36 | 0.36 | 95 | 1013.7 |
| 20260904070445 | 66 | 198 | 0.0 | 0.9 | 0.00 | 0.36 | 0.36 | 95 | 1013.6 |
| 20260904065940 | 66 | 198 | 0.0 | 0.0 | 0.00 | 0.36 | 0.36 | 95 | 1013.7 |
| 20260904065436 | 66 | 187 | 0.0 | 0.0 | 0.00 | 0.36 | 0.36 | 95 | 1013.4 |
| 20260904064931 | 66 | 160 | 0.0 | 0.0 | 0.00 | 0.36 | 0.36 | 95 | 1013.4 |
| 20260904064427 | 66 | 117 | 0.9 | 0.9 | 0.00 | 0.36 | 0.36 | 95 | 1013.6 |
| 20260904063922 | 66 | 164 | 0.0 | 0.0 | 0.00 | 0.36 | 0.36 | 95 | 1013.5 |
| 20260904063419 | 67 | 201 | 0.0 | 0.0 | 0.00 | 0.36 | 0.36 | 95 | 1013.6 |